Back to catalog

STARLINK-35053

AliveCommunicationsSSO
NORAD 65609·PAYLOAD·🇺🇸 United States

Launched Sep 13, 2025 from Cape Canaveral Space Force Station

Loading…

Next Passes (next 24 hours)

TLE

FreshSource: CelesTrak SupGP

Epoch: Sep 14, 2026, 14:56 UTC

1 65609C 25207T   26257.62270833  .00053740  00000+0  32683-2 0  2574
2 65609  97.2842 320.3346 0001686  96.3201 262.7967 15.10508951    18

Track STARLINK-35053 in real time with AllMySat

Download on the App Store